Location: Caltech
(34.1382°N, 118.1253°W)
Time: 04:44:01
(UTC-08:00)

SEDSat Delta rocket - Visible Passes

Search period start: 21 December 2014 00:00
Search period end: 31 December 2014 00:00
Orbit: 534 x 1008 km, 31.4° (Epoch: 20 December)

Date Brightness Start Highest point End Pass type
(mag) Time Alt. Az. Time Alt. Az. Time Alt. Az.
21 Dec 4.0 18:41:22 10° WSW 18:46:59 58° SSE 18:48:22 47° ESE visible
21 Dec 6.2 20:27:22 10° W 20:28:34 17° W 20:28:34 17° W visible
22 Dec 4.1 18:02:13 10° WSW 18:07:31 53° SSE 18:11:13 23° E visible
22 Dec 5.1 19:48:03 10° W 19:51:26 36° WSW 19:51:26 36° WSW visible
23 Dec 4.2 17:23:07 10° WSW 17:28:07 48° SSE 17:33:51 10° E visible
23 Dec 3.8 19:08:47 10° W 19:14:17 69° S 19:14:17 69° S visible
24 Dec 3.8 18:29:34 10° W 18:34:57 68° S 18:37:09 39° ESE visible
24 Dec 6.0 20:15:38 10° W 20:17:21 20° W 20:17:21 20° W visible
25 Dec 3.8 17:50:23 10° WSW 17:55:30 66° S 18:00:02 17° E visible
25 Dec 4.7 19:36:20 10° W 19:40:15 43° WSW 19:40:15 43° WSW visible
26 Dec 3.8 17:11:14 10° WSW 17:16:05 63° S 17:21:43 10° E visible
26 Dec 3.8 18:57:05 10° W 19:02:25 62° S 19:03:10 56° SSE visible
27 Dec 3.8 18:17:52 10° W 18:22:57 63° S 18:26:10 26° ESE visible
27 Dec 5.7 20:04:04 10° W 20:06:23 23° WSW 20:06:23 23° WSW visible
28 Dec 3.8 17:38:41 10° W 17:43:31 64° S 17:49:08 10° ESE visible
28 Dec 4.6 19:24:45 10° W 19:29:27 39° SSW 19:29:27 39° SSW visible
29 Dec 4.4 18:45:29 10° W 18:50:19 42° SSW 18:52:37 28° SSE visible
29 Dec 6.5 20:32:39 10° WSW 20:32:51 11° WSW 20:32:51 11° WSW visible
30 Dec 4.3 18:06:15 10° W 18:10:53 44° SSW 18:15:55 11° SE visible
30 Dec 5.7 19:53:07 10° WSW 19:56:09 19° SW 19:56:09 19° SW visible
